TimeCET,TemperatureF,Dew PointF,Humidity,Sea Level PressureIn,VisibilityMPH,Wind Direction,Wind SpeedMPH,Gust SpeedMPH,PrecipitationIn,Events,Conditions,WindDirDegrees,DateUTC
12:12 AM,48.2,46.4,93,29.80,3.7,South,4.6,-,N/A,,Overcast,190,2012-11-17 23:12:00
12:25 AM,48.2,46.4,93,29.80,3.7,South,4.6,-,N/A,,Overcast,180,2012-11-17 23:25:00
12:29 AM,48.2,46.4,93,29.80,2.8,South,3.5,-,N/A,,Overcast,190,2012-11-17 23:29:00
12:37 AM,48.2,46.4,93,29.80,-9999.0,South,2.3,-,N/A,,Mostly Cloudy,180,2012-11-17 23:37:00
12:38 AM,46.4,46.4,100,29.80,-9999.0,South,3.5,-,N/A,,Mostly Cloudy,170,2012-11-17 23:38:00
12:45 AM,46.4,46.4,100,29.80,-9999.0,South,4.6,-,N/A,,Overcast,170,2012-11-17 23:45:00
12:49 AM,46.4,46.4,100,29.80,-9999.0,South,4.6,-,N/A,,Overcast,170,2012-11-17 23:49:00
12:55 AM,46.4,46.4,100,29.80,3.1,South,3.5,-,N/A,,Mostly Cloudy,180,2012-11-17 23:55:00
12:59 AM,46.4,46.4,100,29.80,3.1,South,3.5,-,N/A,,Mostly Cloudy,190,2012-11-17 23:59:00
1:00 AM,47,46,96,29.82,3,South,4.5,,,,Mist,190,2012-11-18 00:00:00
1:03 AM,46.4,46.4,100,29.80,3.1,South,3.5,-,N/A,,Overcast,190,2012-11-18 00:03:00
1:16 AM,46.4,46.4,100,29.80,3.1,South,5.8,-,N/A,,Overcast,180,2012-11-18 00:16:00
1:25 AM,46.4,46.4,100,29.80,-9999.0,South,4.6,-,N/A,,Overcast,180,2012-11-18 00:25:00
1:55 AM,46.4,46.4,100,29.80,1.4,South,4.6,-,N/A,,Overcast,190,2012-11-18 00:55:00
2:14 AM,46.4,46.4,100,29.80,1.1,SSW,4.6,-,N/A,,Light Drizzle,210,2012-11-18 01:14:00
2:25 AM,46.4,46.4,100,29.80,1.0,SSW,4.6,-,N/A,,Light Drizzle,200,2012-11-18 01:25:00
2:28 AM,46.4,46.4,100,29.80,0.9,SSW,4.6,-,N/A,,Light Drizzle,200,2012-11-18 01:28:00
2:34 AM,46.4,46.4,100,29.80,1.0,SSW,4.6,-,N/A,,Light Drizzle,200,2012-11-18 01:34:00
2:47 AM,46.4,46.4,100,29.80,1.2,SSW,4.6,-,N/A,,Overcast,210,2012-11-18 01:47:00
2:55 AM,46.4,46.4,100,29.80,1.2,SW,3.5,-,N/A,Rain,Light Rain,220,2012-11-18 01:55:00
2:59 AM,46.4,46.4,100,29.80,1.2,SW,3.5,-,N/A,Rain,Rain,220,2012-11-18 01:59:00
3:07 AM,46.4,46.4,100,29.80,0.9,SW,3.5,-,N/A,,Light Drizzle,220,2012-11-18 02:07:00
3:12 AM,46.4,46.4,100,29.80,1.0,SW,3.5,-,N/A,,Overcast,230,2012-11-18 02:12:00
3:18 AM,46.4,46.4,100,29.80,1.0,SW,3.5,-,N/A,,Light Drizzle,220,2012-11-18 02:18:00
3:25 AM,46.4,46.4,100,29.80,0.9,SW,2.3,-,N/A,Rain,Rain,220,2012-11-18 02:25:00
3:30 AM,46.4,46.4,100,29.80,1.0,SW,2.3,-,N/A,Rain,Light Rain,220,2012-11-18 02:30:00
3:34 AM,46.4,46.4,100,29.80,0.9,SSW,2.3,-,N/A,Rain,Rain,210,2012-11-18 02:34:00
3:55 AM,46.4,46.4,100,29.80,1.1,SW,2.3,-,N/A,Rain,Light Rain,220,2012-11-18 02:55:00
4:00 AM,47,47,100,29.82,1,SW,2.2,,,Rain,Light Rain,220,2012-11-18 03:00:00
4:01 AM,46.4,46.4,100,29.80,1.1,SW,2.3,-,N/A,Rain,Light Rain,220,2012-11-18 03:01:00
4:02 AM,46.4,46.4,100,29.80,1.1,SW,2.3,-,N/A,Rain,Light Rain,220,2012-11-18 03:02:00
4:10 AM,46.4,46.4,100,29.80,1.1,SW,2.3,-,N/A,Rain,Light Rain,220,2012-11-18 03:10:00
4:20 AM,46.4,46.4,100,29.80,1.2,SW,2.3,-,N/A,Rain,Light Rain,220,2012-11-18 03:20:00
4:25 AM,46.4,46.4,100,29.80,1.1,SW,2.3,-,N/A,Rain,Light Rain,230,2012-11-18 03:25:00
4:29 AM,46.4,46.4,100,29.80,1.1,WSW,2.3,-,N/A,Rain,Light Rain,240,2012-11-18 03:29:00
4:35 AM,46.4,46.4,100,29.80,1.2,WSW,3.5,-,N/A,Rain,Rain,240,2012-11-18 03:35:00
4:39 AM,46.4,46.4,100,29.80,1.2,SW,3.5,-,N/A,Rain,Light Rain,230,2012-11-18 03:39:00
4:55 AM,46.4,46.4,100,29.80,1.1,WSW,3.5,-,N/A,Rain,Rain,240,2012-11-18 03:55:00
5:00 AM,46.4,46.4,100,29.80,1.1,WSW,3.5,-,N/A,Rain,Rain,250,2012-11-18 04:00:00
5:25 AM,46.4,46.4,100,29.80,1.5,WNW,3.5,-,N/A,Rain,Light Rain,290,2012-11-18 04:25:00
5:48 AM,46.4,46.4,100,29.80,3.1,NNW,5.8,-,N/A,,Drizzle,330,2012-11-18 04:48:00
5:55 AM,46.4,46.4,100,29.83,3.7,NNW,5.8,-,N/A,,Light Drizzle,330,2012-11-18 04:55:00
6:16 AM,46.4,46.4,100,29.83,-9999.0,NNW,5.8,-,N/A,,Drizzle,330,2012-11-18 05:16:00
6:19 AM,46.4,46.4,100,29.83,3.1,NNW,5.8,-,N/A,Rain,Light Rain,340,2012-11-18 05:19:00
6:25 AM,46.4,46.4,100,29.83,-9999.0,NNW,5.8,-,N/A,Rain,Rain,340,2012-11-18 05:25:00
6:29 AM,46.4,46.4,100,29.83,-9999.0,North,5.8,-,N/A,,Drizzle,350,2012-11-18 05:29:00
6:36 AM,46.4,46.4,100,29.83,-9999.0,NNW,4.6,-,N/A,,Overcast,330,2012-11-18 05:36:00
6:40 AM,46.4,46.4,100,29.83,1.9,NW,4.6,-,N/A,Rain,Light Rain,320,2012-11-18 05:40:00
6:55 AM,46.4,46.4,100,29.83,1.5,NW,4.6,-,N/A,Rain,Rain,320,2012-11-18 05:55:00
6:59 AM,46.4,46.4,100,29.83,1.5,NW,5.8,-,N/A,Rain,Light Rain,320,2012-11-18 05:59:00
7:00 AM,47,47,98,29.85,1,NW,6.7,,,Rain,Light Rain,320,2012-11-18 06:00:00
7:10 AM,46.4,46.4,100,29.83,1.4,NNW,6.9,-,N/A,,Heavy Drizzle,330,2012-11-18 06:10:00
7:11 AM,46.4,46.4,100,29.83,1.4,NNW,5.8,-,N/A,,Heavy Drizzle,330,2012-11-18 06:11:00
7:25 AM,46.4,46.4,100,29.86,1.4,NNW,5.8,-,N/A,,Heavy Drizzle,330,2012-11-18 06:25:00
7:55 AM,46.4,46.4,100,29.86,1.4,NNW,4.6,-,N/A,Rain,Light Rain,340,2012-11-18 06:55:00
8:14 AM,46.4,46.4,100,29.86,1.8,North,5.8,-,N/A,Rain,Light Rain,350,2012-11-18 07:14:00
8:18 AM,46.4,46.4,100,29.86,-9999.0,North,5.8,-,N/A,Rain,Light Rain,360,2012-11-18 07:18:00
8:25 AM,46.4,46.4,100,29.86,3.1,North,5.8,-,N/A,,Drizzle,10,2012-11-18 07:25:00
8:36 AM,46.4,46.4,100,29.86,3.1,NNE,5.8,-,N/A,,Drizzle,30,2012-11-18 07:36:00
8:45 AM,46.4,46.4,100,29.86,-9999.0,NNE,4.6,-,N/A,,Drizzle,20,2012-11-18 07:45:00
8:49 AM,46.4,46.4,100,29.86,3.1,North,4.6,-,N/A,,Light Drizzle,350,2012-11-18 07:49:00
8:55 AM,46.4,46.4,100,29.86,3.1,NW,4.6,-,N/A,Rain,Light Rain,320,2012-11-18 07:55:00
8:59 AM,46.4,46.4,100,29.89,3.1,NNW,4.6,-,N/A,Rain,Light Rain,330,2012-11-18 07:59:00
9:03 AM,46.4,46.4,100,29.86,-9999.0,North,4.6,-,N/A,Rain,Light Rain,350,2012-11-18 08:03:00
9:12 AM,46.4,46.4,100,29.89,3.1,NNW,4.6,-,N/A,Rain,Light Rain,340,2012-11-18 08:12:00
9:16 AM,46.4,46.4,100,29.89,-9999.0,NNW,4.6,-,N/A,Rain,Light Rain,330,2012-11-18 08:16:00
9:20 AM,46.4,46.4,100,29.89,-9999.0,NW,4.6,-,N/A,Rain,Light Rain,320,2012-11-18 08:20:00
9:25 AM,46.4,46.4,100,29.89,-9999.0,WNW,3.5,-,N/A,Rain,Light Rain,300,2012-11-18 08:25:00
9:29 AM,46.4,46.4,100,29.89,3.1,WNW,3.5,-,N/A,Rain,Light Rain,290,2012-11-18 08:29:00
9:34 AM,46.4,46.4,100,29.89,-9999.0,West,3.5,-,N/A,,Light Drizzle,280,2012-11-18 08:34:00
9:35 AM,46.4,46.4,100,29.89,3.1,West,3.5,-,N/A,,Light Drizzle,280,2012-11-18 08:35:00
9:37 AM,46.4,46.4,100,29.89,3.1,West,3.5,-,N/A,,Light Drizzle,280,2012-11-18 08:37:00
9:48 AM,46.4,46.4,100,29.89,-9999.0,WNW,3.5,-,N/A,Rain,Light Rain,300,2012-11-18 08:48:00
9:51 AM,46.4,46.4,100,29.89,3.1,NW,3.5,-,N/A,Rain,Light Rain,320,2012-11-18 08:51:00
9:55 AM,46.4,46.4,100,29.89,-9999.0,NW,3.5,-,N/A,Rain,Light Rain,320,2012-11-18 08:55:00
10:00 AM,47,46,96,29.91,3,NNW,4.5,,,Rain,Light Drizzle,330,2012-11-18 09:00:00
10:25 AM,46.4,46.4,100,29.89,-9999.0,NW,3.5,-,N/A,,Light Drizzle,310,2012-11-18 09:25:00
10:29 AM,46.4,46.4,100,29.89,-9999.0,WNW,3.5,-,N/A,,Light Drizzle,300,2012-11-18 09:29:00
10:42 AM,46.4,46.4,100,29.92,-9999.0,WNW,4.6,-,N/A,Rain,Light Rain,290,2012-11-18 09:42:00
10:55 AM,46.4,46.4,100,29.92,-9999.0,WNW,3.5,-,N/A,Rain,Drizzle,300,2012-11-18 09:55:00
11:08 AM,46.4,46.4,100,29.92,-9999.0,NW,3.5,-,N/A,Rain,Light Rain,310,2012-11-18 10:08:00
11:09 AM,46.4,46.4,100,29.92,-9999.0,NW,3.5,-,N/A,Rain,Light Rain,310,2012-11-18 10:09:00
11:10 AM,46.4,46.4,100,29.92,-9999.0,NW,3.5,-,N/A,Rain,Light Rain,310,2012-11-18 10:10:00
11:16 AM,46.4,46.4,100,29.92,-9999.0,WNW,3.5,-,N/A,Rain,Light Rain,300,2012-11-18 10:16:00
11:20 AM,46.4,46.4,100,29.92,2.2,NW,3.5,-,N/A,Rain,Light Rain Showers,310,2012-11-18 10:20:00
11:25 AM,46.4,46.4,100,29.92,-9999.0,NW,3.5,-,N/A,Rain,Light Rain,320,2012-11-18 10:25:00
11:29 AM,46.4,46.4,100,29.92,-9999.0,NW,3.5,-,N/A,Rain,Light Rain,320,2012-11-18 10:29:00
11:42 AM,46.4,46.4,100,29.92,2.8,NW,3.5,-,N/A,Rain,Light Rain,310,2012-11-18 10:42:00
11:50 AM,48.2,46.4,93,29.92,3.1,NW,3.5,-,N/A,Rain,Light Rain,310,2012-11-18 10:50:00
11:55 AM,48.2,46.4,93,29.92,3.1,NW,4.6,-,N/A,Rain,Light Rain,310,2012-11-18 10:55:00
12:05 PM,46.4,46.4,100,29.92,-9999.0,WNW,4.6,-,N/A,Rain,Light Rain,300,2012-11-18 11:05:00
12:09 PM,46.4,46.4,100,29.92,3.1,WNW,4.6,-,N/A,Rain,Light Rain,300,2012-11-18 11:09:00
12:18 PM,46.4,46.4,100,29.92,3.1,NW,4.6,-,N/A,Rain,Light Rain,310,2012-11-18 11:18:00
12:25 PM,46.4,46.4,100,29.92,3.1,NW,3.5,-,N/A,Rain,Light Rain,320,2012-11-18 11:25:00
12:32 PM,46.4,46.4,100,29.92,-9999.0,North,2.3,-,N/A,Rain,Light Rain,350,2012-11-18 11:32:00
12:36 PM,46.4,46.4,100,29.92,3.1,North,2.3,-,N/A,Rain,Light Rain Showers,350,2012-11-18 11:36:00
12:42 PM,46.4,46.4,100,29.92,-9999.0,NNW,2.3,-,N/A,Rain,Light Rain Showers,330,2012-11-18 11:42:00
12:55 PM,46.4,46.4,100,29.92,-9999.0,NW,3.5,-,N/A,Rain,Light Rain,320,2012-11-18 11:55:00
1:00 PM,47,47,99,29.96,3,WNW,4.5,,,Rain,Light Rain,300,2012-11-18 12:00:00
1:06 PM,46.4,46.4,100,29.95,3.1,WNW,4.6,-,N/A,Rain,Light Rain,290,2012-11-18 12:06:00
1:09 PM,46.4,46.4,100,29.95,3.1,WNW,4.6,-,N/A,Rain,Light Rain,290,2012-11-18 12:09:00
1:25 PM,48.2,46.4,93,29.95,3.7,WNW,3.5,-,N/A,,Overcast,300,2012-11-18 12:25:00
1:26 PM,48.2,46.4,93,29.95,3.7,NW,4.6,-,N/A,,Mostly Cloudy,310,2012-11-18 12:26:00
1:30 PM,48.2,46.4,93,29.95,3.7,NW,4.6,-,N/A,,Mostly Cloudy,310,2012-11-18 12:30:00
1:47 PM,48.2,46.4,93,29.95,5.6,NW,4.6,-,N/A,,Mostly Cloudy,310,2012-11-18 12:47:00
1:51 PM,48.2,46.4,93,29.95,5.0,NW,4.6,-,N/A,,Mostly Cloudy,320,2012-11-18 12:51:00
1:55 PM,48.2,46.4,93,29.95,5.0,NW,4.6,-,N/A,,Mostly Cloudy,320,2012-11-18 12:55:00
1:59 PM,48.2,46.4,93,29.95,5.0,NW,3.5,-,N/A,,Overcast,310,2012-11-18 12:59:00
2:03 PM,48.2,46.4,93,29.95,5.0,NW,3.5,-,N/A,,Overcast,310,2012-11-18 13:03:00
2:14 PM,48.2,46.4,93,29.95,4.3,NNW,3.5,-,N/A,,Overcast,330,2012-11-18 13:14:00
2:18 PM,48.2,46.4,93,29.95,5.0,NNW,3.5,-,N/A,,Overcast,330,2012-11-18 13:18:00
2:25 PM,48.2,46.4,93,29.95,5.0,NW,2.3,-,N/A,,Overcast,320,2012-11-18 13:25:00
2:28 PM,48.2,46.4,93,29.95,5.0,WNW,2.3,-,N/A,,Mostly Cloudy,300,2012-11-18 13:28:00
2:32 PM,48.2,46.4,93,29.95,5.6,West,2.3,-,N/A,,Mostly Cloudy,280,2012-11-18 13:32:00
2:33 PM,48.2,46.4,93,29.95,6.2,WNW,2.3,-,N/A,,Mostly Cloudy,290,2012-11-18 13:33:00
2:47 PM,48.2,46.4,93,29.95,6.2,NNW,3.5,-,N/A,,Mostly Cloudy,330,2012-11-18 13:47:00
2:55 PM,48.2,46.4,93,29.95,6.2,NNW,3.5,-,N/A,,Mostly Cloudy,330,2012-11-18 13:55:00
3:10 PM,48.2,46.4,93,29.95,6.2,NNW,3.5,-,N/A,,Overcast,330,2012-11-18 14:10:00
3:25 PM,46.4,46.4,100,29.95,6.2,NNW,2.3,-,N/A,,Scattered Clouds,330,2012-11-18 14:25:00
3:40 PM,46.4,44.6,93,29.95,4.3,NNW,1.2,-,N/A,,Partly Cloudy,330,2012-11-18 14:40:00
3:45 PM,46.4,44.6,93,29.95,6.2,NW,2.3,-,N/A,,Scattered Clouds,320,2012-11-18 14:45:00
3:55 PM,46.4,46.4,100,29.98,4.3,NW,2.3,-,N/A,,Partly Cloudy,310,2012-11-18 14:55:00
4:00 PM,46,45,94,29.99,4,NW,2.2,,,,Mist,310,2012-11-18 15:00:00
4:17 PM,44.6,44.6,100,29.98,1.7,WNW,2.3,-,N/A,,Partly Cloudy,300,2012-11-18 15:17:00
4:25 PM,42.8,42.8,100,29.98,0.4,NW,2.3,-,N/A,Fog,Patches of Fog,310,2012-11-18 15:25:00
4:33 PM,42.8,42.8,100,29.98,0.2,WNW,2.3,-,N/A,Fog,Fog,290,2012-11-18 15:33:00
4:34 PM,42.8,42.8,100,29.98,0.2,West,1.2,-,N/A,Fog,Fog,280,2012-11-18 15:34:00
4:46 PM,41.0,41.0,100,29.98,0.1,SSW,1.2,-,N/A,Fog,Fog,200,2012-11-18 15:46:00
4:55 PM,41.0,41.0,100,29.98,0.2,Calm,Calm,-,N/A,Fog,Fog,0,2012-11-18 15:55:00
5:11 PM,39.2,39.2,100,29.98,0.2,SSW,1.2,-,N/A,Fog,Fog,200,2012-11-18 16:11:00
5:25 PM,39.2,39.2,100,29.98,0.2,South,1.2,-,N/A,Fog,Fog,180,2012-11-18 16:25:00
5:55 PM,37.4,37.4,100,30.01,0.2,South,1.2,-,N/A,Fog,Fog,180,2012-11-18 16:55:00
6:00 PM,39.2,39.2,100,30.01,0.1,South,1.2,-,N/A,Fog,Fog,190,2012-11-18 17:00:00
6:25 PM,37.4,37.4,100,30.01,0.2,West,1.2,-,N/A,Fog,Fog,260,2012-11-18 17:25:00
6:55 PM,35.6,35.6,100,30.01,0.1,NNW,1.2,-,N/A,Fog,Fog,340,2012-11-18 17:55:00
7:00 PM,35,35,99,30.04,0,Calm,Calm,,,Fog,Fog,,2012-11-18 18:00:00
7:25 PM,33.8,33.8,100,30.04,0.2,Calm,Calm,-,N/A,Fog,Fog,0,2012-11-18 18:25:00
7:43 PM,33.8,33.8,100,30.04,0.2,South,2.3,-,N/A,Fog,Fog,170,2012-11-18 18:43:00
7:55 PM,33.8,33.8,100,30.04,0.3,SSE,2.3,-,N/A,Fog,Fog,160,2012-11-18 18:55:00
8:25 PM,33.8,33.8,100,30.04,0.3,Calm,Calm,-,N/A,Fog,Fog,0,2012-11-18 19:25:00
8:55 PM,32.0,32.0,100,30.04,0.3,SSE,1.2,-,N/A,Fog,Light Freezing Fog,160,2012-11-18 19:55:00
9:25 PM,32.0,32.0,100,30.04,0.2,SSE,2.3,-,N/A,Fog,Light Freezing Fog,150,2012-11-18 20:25:00
9:55 PM,32.0,32.0,100,30.04,0.2,SE,2.3,-,N/A,Fog,Fog,130,2012-11-18 20:55:00
10:00 PM,33,33,97,30.06,0,ESE,2.2,,,Fog,Fog,110,2012-11-18 21:00:00
10:25 PM,32.0,32.0,100,30.04,0.2,SE,1.2,-,N/A,Fog,Light Freezing Fog,140,2012-11-18 21:25:00
10:55 PM,32.0,32.0,100,30.06,0.2,SSW,1.2,-,N/A,Fog,Light Freezing Fog,210,2012-11-18 21:55:00
11:25 PM,32.0,32.0,100,30.06,0.2,SSE,1.2,-,N/A,Fog,Light Freezing Fog,150,2012-11-18 22:25:00
11:48 PM,30.2,30.2,100,30.04,0.2,South,1.2,-,N/A,Fog,Light Freezing Fog,170,2012-11-18 22:48:00
11:55 PM,30.2,30.2,100,30.04,0.3,South,1.2,-,N/A,Fog,Light Freezing Fog,170,2012-11-18 22:55:00
11:59 PM,30.2,30.2,100,30.04,0.3,South,1.2,-,N/A,Fog,Light Freezing Fog,170,2012-11-18 22:59:00